This demonstration page uses our WeatherBlox Daily Observations layout. Learn more.

Left ArrowRight Arrow

Hourly Observations for September 18, 2020

Temp ( °F °C ) Dew Point ( °F °C ) Humidity (%) Winds ( mph kmh ) Pressure ( in mb ) Visibility ( mi km ) Precip ( " mm )
12:49 am 00:49 Cloudy with Rain 71 21.7 68 20 90 90 ENE 13 20 29.83 1010 2 3 0.23 5.84
12:59 am 00:59 Cloudy with Rain 71 21.7 69 20.6 94 94 ENE 15 24 29.83 1010 2 3 0.31 7.87
1:04 am 01:04 Cloudy with Rain 71 21.7 69 20.6 94 94 NE 14 22 29.83 1010 2 3 0.06 1.52
1:36 am 01:36 Cloudy with Rain 71 21.7 68 20 90 90 ENE 20 31 29.81 1009 2 3 0.43 10.92
1:59 am 01:59 Cloudy with Rain 71 21.7 68 20 90 90 ENE 18 30 29.80 1009 2 3 0.59 14.99
2:27 am 02:27 Cloudy with Rain 70 21.1 67 19.4 90 90 NE 22 35 29.78 1008 2 2 0.33 8.38
2:59 am 02:59 Cloudy with Rain 70 21.1 67 19.4 90 90 ENE 23 37 29.76 1008 3 4 0.47 11.94
3:31 am 03:31 Cloudy with Rain 69 20.6 67 19.4 93 93 NE 22 35 29.77 1008 2 2 0.57 14.48
3:59 am 03:59 Cloudy with Rain 69 20.6 67 19.4 93 93 NE 24 39 29.74 1007 2 2 0.90 22.86
4:59 am 04:59 Cloudy with Rain 69 20.6 67 19.4 93 93 NNE 16 26 29.77 1008 2 2 1.11 28.19
5:15 am 05:15 Cloudy with Rain 69 20.6 67 19.4 93 93 NNE 18 30 29.77 1008 2 3 0.15 3.81
5:29 am 05:29 Cloudy with Light Rain 69 20.6 67 19.4 93 93 NNE 14 22 29.77 1008 2 3 0.20 5.08
5:45 am 05:45 Cloudy with Light Rain 70 21.1 67 19.4 90 90 NNE 15 24 29.78 1008 3 5 0.24 6.10
5:59 am 05:59 Cloudy with Light Rain 70 21.1 67 19.4 90 90 NNE 21 33 29.78 1008 3 5 0.25 6.35
6:59 am 06:59 Cloudy 70 21.1 67 19.4 90 90 NNE 17 28 29.79 1009 10 16 0.01 0.25
7:59 am 07:59 Cloudy with Light Rain 70 21.1 66 18.9 87 87 NNE 17 28 29.81 1010 5 8 0.03 0.76
8:30 am 08:30 Cloudy with Light Rain 70 21.1 67 19.4 90 90 NNE 15 24 29.82 1010 2 3 0.02 0.51
8:48 am 08:48 Cloudy with Light Rain 70 21.1 67 19.4 90 90 NNE 13 20 29.83 1010 2 3 0.04 1.02
8:59 am 08:59 Cloudy with Light Rain 70 21.1 66 18.9 87 87 NNE 17 28 29.83 1010 2 3 0.05 1.27
9:34 am 09:34 Cloudy with Light Rain 70 21.1 67 19.4 90 90 NNE 20 31 29.84 1010 3 5 0.01 0.25
9:38 am 09:38 Cloudy with Light Rain 70 21.1 67 19.4 90 90 NNE 20 31 29.84 1010 3 5 0.02 0.51
9:59 am 09:59 Cloudy with Light Rain 70 21.1 66 18.9 87 87 NNE 18 30 29.85 1011 5 8 0.02 0.51
10:42 am 10:42 Cloudy 72 22.2 65 18.3 79 79 NNE 17 28 29.87 1011 10 16 0.00 0.00
10:59 am 10:59 Cloudy 72 22.2 65 18.3 79 79 NNE 20 31 29.87 1011 10 16 0.00 0.00
11:59 am 11:59 Cloudy 74 23.3 65 18.3 74 74 NNE 18 30 29.88 1012 10 16 0.00 0.00
12:59 pm 12:59 Mostly Cloudy 76 24.4 66 18.9 72 72 NNE 22 35 29.88 1012 10 16 0.00 0.00
1:59 pm 13:59 Mostly Cloudy 76 24.4 65 18.3 69 69 NNE 22 35 29.89 1012 10 16 0.00 0.00
2:59 pm 14:59 Mostly Cloudy 74 23.3 65 18.3 74 74 N 20 31 29.89 1012 10 16 0.00 0.00
3:59 pm 15:59 Cloudy 74 23.3 63 17.2 69 69 N 20 31 29.91 1013 9 14 0.00 0.00
4:59 pm 16:59 Mostly Cloudy 73 22.8 62 16.7 69 69 N 18 30 29.92 1013 10 16 0.00 0.00
5:59 pm 17:59 Mostly Cloudy 73 22.8 63 17.2 71 71 N 22 35 29.95 1014 9 14 0.00 0.00
6:59 pm 18:59 Mostly Cloudy 72 22.2 62 16.7 71 71 N 17 28 29.96 1015 9 14 0.00 0.00
7:59 pm 19:59 Cloudy with Light Rain 69 20.6 63 17.2 81 81 NNE 9 15 30.00 1016 6 10 0.03 0.76
8:59 pm 20:59 Cloudy 69 20.6 63 17.2 81 81 NE 14 22 30.02 1017 7 11 0.05 1.27
9:59 pm 21:59 Cloudy 70 21.1 61 16.1 73 73 NNE 16 26 30.03 1017 10 16 0.01 0.25
10:59 pm 22:59 Mostly Cloudy 70 21.1 58 14.4 66 66 NNE 20 31 30.05 1018 9 14 0.00 0.00
11:59 pm 23:59 Mostly Cloudy 70 21.1 57 13.9 64 64 NNE 17 28 30.06 1018 9 14 0.00 0.00

Powered by AerisWeather